Weather History for Marion, OH

Change the Weather History Date:

Saturday, January 5, 2013

  Actual Average (KDLZ) Record (KDLZ)
Temperature  
Mean Temperature 22 °F -  
Max Temperature 34 °F 35 °F 61 °F (1939)
Min Temperature 10 °F 17 °F -9 °F (1981)
Degree Days  
Heating Degree Days 43    
Moisture  
Dew Point 19 °F    
Average Humidity 79    
Maximum Humidity 92    
Minimum Humidity 66    
Precipitation  
Precipitation 0.00 in - - ()
Sea Level Pressure  
Sea Level Pressure 30.28 in    
Wind  
Wind Speed 8 mph (SSW)    
Max Wind Speed 14 mph    
Max Gust Speed -    
Visibility 8 miles    
Events      
Averages and records for this station are not official NWS values.
T = Trace of Precipitation, MM = Missing Value Source: NWS Daily Summary

Daily Weather History Graph

Daily Weather History Graph

Search for Another Location

Airport:

Trip Planner

Search our weather history database for the weather conditions in past years. The results will help you decide how hot, cold, wet, or windy it might be!

Date:

Astronomy

Jan. 05, 2013 Rise Set
Actual Time 7:56 AM EST 5:19 PM EST
Civil Twilight 7:25 AM EST 5:50 PM EST
Nautical Twilight 6:51 AM EST 6:24 PM EST
Astronomical Twilight 6:18 AM EST 6:57 PM EST
Moon 1:00 AM EST (1/5) 12:09 PM EST (1/5)
Length of Visible Light 10h 24m
Length of Day
9h 23m
Last Quarter, 44% of the Moon is Illuminated
Jan 5
Last Quarter
Jan 11
New
Jan 18
First Quarter
Jan 26
Full
Feb 3
Last Quarter

Hourly Weather History & Observations

Time (EST) Temp. Windchill Dew Point Humidity Pressure Visibility Wind Dir Wind Speed Gust Speed Precip Events Conditions
12:53 AM 23.0 °F 13.9 °F 15.1 °F 72% 30.31 in 10.0 mi WSW 8.1 mph - N/A   Clear
1:53 AM 18.0 °F 9.8 °F 12.9 °F 81% 30.33 in 10.0 mi SSW 5.8 mph - N/A   Clear
2:53 AM 15.1 °F 6.4 °F 10.9 °F 84% 30.35 in 10.0 mi SW 5.8 mph - N/A   Clear
3:53 AM 14.0 °F 3.9 °F 10.9 °F 88% 30.35 in 9.0 mi South 6.9 mph - N/A   Clear
4:53 AM 15.1 °F 7.7 °F 10.9 °F 84% 30.35 in 7.0 mi SSW 4.6 mph - N/A   Clear
5:53 AM 12.0 °F 0.5 °F 9.0 °F 88% 30.36 in 6.0 mi South 8.1 mph - N/A   Clear
6:53 AM 10.9 °F 1.4 °F 8.1 °F 88% 30.38 in 6.0 mi SSW 5.8 mph - N/A   Clear
7:53 AM 15.1 °F 5.2 °F 12.9 °F 91% 30.37 in 5.0 mi SSE 6.9 mph - N/A   Clear
8:53 AM 16.0 °F 5.3 °F 14.0 °F 92% 30.38 in 4.0 mi South 8.1 mph - N/A   Clear
9:53 AM 19.0 °F 10.0 °F 17.1 °F 92% 30.37 in 5.0 mi South 6.9 mph - N/A   Clear
10:53 AM 23.0 °F 13.9 °F 19.0 °F 85% 30.37 in 5.0 mi South 8.1 mph - N/A   Clear
11:53 AM 26.1 °F 16.2 °F 19.9 °F 78% 30.33 in 7.0 mi SSW 10.4 mph - N/A   Clear
12:53 PM 28.0 °F 17.5 °F 21.9 °F 78% 30.29 in 7.0 mi SSW 12.7 mph - N/A   Clear
1:53 PM 30.9 °F 22.8 °F 23.0 °F 72% 30.26 in 10.0 mi SSW 9.2 mph - N/A   Clear
2:53 PM 33.1 °F 24.9 °F 23.0 °F 66% 30.22 in 10.0 mi South 10.4 mph - N/A   Clear
3:53 PM 33.1 °F 23.9 °F 23.0 °F 66% 30.23 in 10.0 mi SSW 12.7 mph - N/A   Clear
4:53 PM 33.1 °F 24.4 °F 24.1 °F 70% 30.22 in 10.0 mi SSW 11.5 mph - N/A   Mostly Cloudy
5:53 PM 33.1 °F 23.4 °F 25.0 °F 72% 30.22 in 10.0 mi SSW 13.8 mph - N/A   Overcast
6:53 PM 33.1 °F 23.9 °F 26.1 °F 75% 30.22 in 10.0 mi SSW 12.7 mph - 0.00 in   Overcast
7:53 PM 33.1 °F 24.9 °F 26.1 °F 75% 30.20 in 10.0 mi SSW 10.4 mph - N/A   Overcast
8:53 PM 33.1 °F 24.9 °F 26.1 °F 75% 30.20 in 10.0 mi SW 10.4 mph - N/A   Overcast
9:53 PM 34.0 °F 26.6 °F 26.1 °F 73% 30.19 in 10.0 mi SW 9.2 mph - N/A   Overcast
10:53 PM 34.0 °F 26.6 °F 25.0 °F 70% 30.17 in 10.0 mi SW 9.2 mph - N/A   Overcast
11:53 PM 34.0 °F 24.6 °F 25.0 °F 70% 30.16 in 10.0 mi SW 13.8 mph - N/A   Overcast